sat.trackr.live / text

‹ back to catalog

BEIDOU-3 M12 (C26)

NORAD 43602 · 2018-067A

PAYLOAD ACTIVE UNKNOWN

§ Identity

Operator
Country
PRC
Launch date
2018-08-24
Launch site
XICLF
Launch vehicle
Mass (kg)
RCS (m²)

Purposes: nav

External: N2YO · Heavens-Above · Gunter

§ Orbital elements

Epoch: 2026-05-24T06:47:17.670624Z

Period
773.25 min
Inclination
54.1791°
Eccentricity
0.0007779
Mean motion
1.86227821 rev/d
Perigee alt
21,506.7 km
Apogee alt
21,550.1 km
Semi-major
27,906.5 km
B*
0.0000e+0
RAAN
181.8510°
Arg perigee
30.2121°
Mean anomaly
329.8983°
Rev number
5,267

§ Raw data

BEIDOU-3 M12 (C26)1 43602U 18067A   26144.28284341  .00000054  00000+0  00000+0 0  99932 43602  54.1791 181.8510 0007779  30.2121 329.8983  1.86227821 52676

JSON: /api/v1/satellites/43602 · /tle

For live sub-satellite position, see the globe view (requires WebGL).

§ Visibility from observer

Set your observer location to see the next 7 days of passes ≥ 10°. The values pass through the URL so the page stays shareable.

No JS? Fill the form by hand. The geolocation button needs JavaScript.